Tracking 28052 objects as of 22-Sep-2023
HD Live streaming from Space Station
objects crossing your sky now

STARLINK-4519

Track STARLINK-4519 now!
10-day predictions
STARLINK-4519 is classified as:


NORAD ID: 53439
Int'l Code: 2022-097BD
Perigee: 546.1 km
Apogee: 547.5 km
Inclination: 53.2 °
Period: 95.4 minutes
Semi major axis: 6917 km
RCS: Unknown
Launch date: August 10, 2022
Source: United States (US)
Launch site: AIR FORCE EASTERN TEST RANGE (AFETR)
Your satellite tracking list
Your tracking list is empty




NASA's NSSDC Master Catalog

Two Line Element Set (TLE):
1 53439U 22097BD  23265.19338725  .00019397  00000-0  12327-2 0  9996
2 53439  53.2168 181.8871 0001028 100.9140 259.1968 15.08861989 62510
Source of the keplerian elements: AFSPC